TimeCST,TemperatureF,Dew PointF,Humidity,Sea Level PressureIn,VisibilityMPH,Wind Direction,Wind SpeedMPH,Gust SpeedMPH,PrecipitationIn,Events,Conditions,WindDirDegrees,DateUTC
12:40 AM,68.0,68.0,100,29.94,7.0,East,5.8,-,N/A,,Overcast,90,2013-11-05 06:40:00
1:40 AM,68.0,68.0,100,29.92,7.0,East,5.8,-,N/A,,Overcast,90,2013-11-05 07:40:00
2:40 AM,68.0,68.0,100,29.93,7.0,Calm,Calm,-,N/A,,Mostly Cloudy,0,2013-11-05 08:40:00
3:40 AM,68.0,68.0,100,29.91,7.0,Calm,Calm,-,N/A,,Mostly Cloudy,0,2013-11-05 09:40:00
4:40 AM,68.0,68.0,100,29.92,7.0,SE,4.6,-,N/A,,Mostly Cloudy,130,2013-11-05 10:40:00
5:40 AM,66.2,66.2,100,29.91,7.0,ESE,3.5,-,N/A,Thunderstorm,Thunderstorm,110,2013-11-05 11:40:00
6:40 AM,68.0,68.0,100,29.94,2.0,East,8.1,-,N/A,Rain-Thunderstorm,Heavy Thunderstorms and Rain,90,2013-11-05 12:40:00
7:46 AM,68.0,68.0,100,29.97,7.0,East,4.6,-,N/A,,Overcast,80,2013-11-05 13:46:00
8:41 AM,68.0,68.0,100,30.01,7.0,Calm,Calm,-,N/A,,Overcast,0,2013-11-05 14:41:00
9:13 AM,68.0,68.0,100,29.98,1.5,ESE,6.9,-,N/A,Rain,Rain,110,2013-11-05 15:13:00
9:50 AM,68.0,68.0,100,29.97,5.0,South,3.5,-,N/A,Rain,Rain,180,2013-11-05 15:50:00
10:50 AM,68.0,68.0,100,29.99,6.0,Calm,Calm,-,N/A,,Overcast,0,2013-11-05 16:50:00
11:46 AM,69.8,69.8,100,29.93,6.0,Calm,Calm,-,N/A,,Overcast,0,2013-11-05 17:46:00
12:44 PM,71.6,71.6,100,29.91,7.0,East,5.8,-,N/A,,Mostly Cloudy,80,2013-11-05 18:44:00
1:49 PM,75.2,71.6,89,29.87,7.0,ENE,6.9,-,N/A,,Mostly Cloudy,70,2013-11-05 19:49:00
2:47 PM,77.0,71.6,83,29.91,7.0,ENE,5.8,-,N/A,,Mostly Cloudy,60,2013-11-05 20:47:00
3:49 PM,75.2,71.6,89,29.86,7.0,ENE,6.9,-,N/A,,Mostly Cloudy,70,2013-11-05 21:49:00
4:46 PM,75.2,71.6,89,29.88,7.0,NE,6.9,-,N/A,,Mostly Cloudy,50,2013-11-05 22:46:00
5:48 PM,73.4,69.8,88,29.88,7.0,NE,3.5,-,N/A,,Mostly Cloudy,40,2013-11-05 23:48:00
6:51 PM,73.4,69.8,88,29.90,7.0,NE,4.6,-,N/A,,Scattered Clouds,50,2013-11-06 00:51:00
7:40 PM,75.2,71.6,89,29.92,7.0,NE,4.6,-,N/A,,Mostly Cloudy,50,2013-11-06 01:40:00
8:53 PM,75.2,71.6,89,29.88,7.0,North,5.8,-,N/A,,Scattered Clouds,10,2013-11-06 02:53:00
9:46 PM,73.4,71.6,94,29.92,7.0,ENE,4.6,-,N/A,,Scattered Clouds,70,2013-11-06 03:46:00
10:40 PM,73.4,71.6,94,29.92,7.0,NNE,4.6,-,N/A,,Scattered Clouds,30,2013-11-06 04:40:00
11:41 PM,73.4,71.6,94,29.89,7.0,Calm,Calm,-,N/A,,Partly Cloudy,0,2013-11-06 05:41:00